Zurück zum Katalog

SCOUT A R/B

AktivPO
NORAD 3137·ROCKET BODY·🇺🇸 United States

Gestartet Mar 2, 1968 von Vandenberg Space Force Base

Loading…

Nächste Überflüge (nächste 24 Stunden)

TLE

AktuellSource: Space-Track

Epoche: Sep 14, 2026, 17:47 UTC

1 03137U 68012B   26257.74123704  .00000149  00000-0  21429-3 0  9996
2 03137  90.0225 273.7432 0075624 170.6369 189.6213 13.50375487880872

Verfolge SCOUT A R/B in Echtzeit mit AllMySat

Download on the App Store